Flag for West Bank Weather past 2 weeks in Hebron, West Bank

Now
77 °F

Clear.


Feels Like: 79 °F
Forecast: 65 / 82 °F
Wind: 6 mph from North

Location: Ben Gurion International Airport

Current Time: Jul 4, 2015 at 11:13:53 PM

Latest Report: Jul 4, 2015 at 10:20 PM


Visibility: 10 mi

Pressure: 29.89 "Hg (26.98 "Hg at 894m altitude)

Humidity: 74%

Dew point: 68 °F

Location of HebronLocation

Historic Weather in Hebron — Graph

°F

Hebron temperature yesterday

Maximum temperature yesterday: 84 °F (at 1:50 PM)
Minimum temperature yesterday: 72 °F (at 5:20 AM)
Average temperature yesterday: 78 °F

Past Weeks' High & Low Weather Summary

 TemperatureHumidityPressure
High91 °F (Jun 27, 1:20 PM)83% (Jun 27, 12:50 AM)29.98 "Hg (Jun 27, 12:50 AM)
Low68 °F (Jun 22, 6:20 AM)21% (Jun 27, 6:50 PM)29.59 "Hg (Jun 27, 9:20 PM)
Average78 °F63%29.86 "Hg
* Reported Jun 19 9:20 PM — Jul 4 9:50 PM, Hebron, Weather by CustomWeather, © 2015

Note: Actual official high and low records may vary slightly from our data, if they occured in-between our weather recording intervals... More about our weather records

Advertising

Hebron weather history for previous 24 hours

 ConditionsComfort  
Time TempWeatherWind HumidityBarometerVisibility
9:50 PM
Sat, Jul 4
77 °FClear.7 mph74%29.89 "Hg10 mi
9:20 PM77 °FClear.7 mph74%29.89 "Hg10 mi
8:50 PM77 °FClear.7 mph74%29.89 "Hg10 mi
8:20 PM79 °FSunny.7 mph65%29.89 "Hg10 mi
7:50 PM79 °FSunny.9 mph65%29.89 "Hg10 mi
7:20 PM81 °FSunny.9 mph62%29.89 "Hg10 mi
6:50 PM82 °FSunny.9 mph58%29.89 "Hg10 mi
6:20 PM82 °FSunny.9 mph58%29.86 "Hg10 mi
5:50 PM84 °FSunny.10 mph51%29.86 "Hg10 mi
5:20 PM84 °FSunny.9 mph48%29.86 "Hg10 mi
4:50 PM84 °FPassing clouds.9 mph51%29.86 "HgN/A
4:20 PM84 °FSunny.10 mph51%29.89 "Hg10 mi
3:50 PM84 °FSunny.13 mph51%29.89 "Hg10 mi
3:20 PM84 °FSunny.14 mph51%29.89 "Hg10 mi
2:50 PM84 °FSunny.13 mph51%29.89 "Hg10 mi
2:20 PM84 °FPassing clouds.12 mph51%29.89 "HgN/A
1:50 PM84 °FPassing clouds.12 mph51%29.89 "HgN/A
1:20 PM84 °FPassing clouds.13 mph51%29.89 "HgN/A
12:50 PM84 °FPassing clouds.10 mph51%29.89 "HgN/A
12:20 PM84 °FPassing clouds.10 mph51%29.89 "HgN/A
11:50 AM86 °FPassing clouds.7 mph49%29.92 "HgN/A
11:20 AM84 °FPassing clouds.5 mph48%29.92 "HgN/A
10:50 AM82 °FPassing clouds.6 mph55%29.92 "HgN/A
10:20 AM82 °FPassing clouds.7 mph55%29.92 "HgN/A
9:50 AM81 °FPassing clouds.3 mph58%29.92 "HgN/A
9:20 AM79 °FPassing clouds.6 mph61%29.92 "HgN/A
8:50 AM79 °FScattered clouds.6 mph61%29.92 "HgN/A
8:20 AM77 °FScattered clouds.6 mph65%29.92 "HgN/A
7:50 AM75 °FScattered clouds.6 mph69%29.92 "HgN/A
7:20 AM73 °FPartly sunny.7 mph74%29.92 "HgN/A
6:20 AM73 °FPassing clouds.6 mph74%29.92 "HgN/A
5:50 AM73 °FPassing clouds.6 mph78%29.89 "HgN/A
5:20 AM73 °FPassing clouds.5 mph78%29.89 "HgN/A
4:50 AM73 °FPassing clouds.5 mph78%29.89 "HgN/A
4:20 AM72 °FPassing clouds.5 mph83%29.89 "HgN/A
3:50 AM72 °FPassing clouds.6 mph83%29.89 "HgN/A
3:20 AM72 °FPassing clouds.6 mph83%29.89 "HgN/A
2:50 AM73 °FPassing clouds.5 mph78%29.89 "HgN/A
2:20 AM73 °FPassing clouds.3 mph78%29.89 "HgN/A
1:50 AM73 °FPassing clouds.5 mph78%29.92 "HgN/A
1:20 AM73 °FPassing clouds.5 mph78%29.92 "HgN/A
12:50 AM73 °FPassing clouds.3 mph78%29.92 "HgN/A
12:20 AM73 °FPassing clouds.3 mph78%29.92 "HgN/A
11:50 PM
Fri, Jul 3
75 °FPassing clouds.3 mph74%29.92 "HgN/A
11:20 PM75 °FPassing clouds.2 mph74%29.92 "HgN/A
Weather by CustomWeather, © 2015

See weather overviewHow to use our weather pages